Total_Precipitation_Accumulation
0.00 0.00 0.00 0.00 0.00 0.00 0.01 0.01 0.01 0.01 0.01 0.01 0.03 0.05 0.07 0.10 0.11 0.12 0.14 0.18 0.20 0.20 0.24 0.31 0.35 0.37 0.40 0.37 0.33 0.28 0.23 0.21 0.17 0.05 0.02 0.05 0.14 0.19 0.21 0.20 0.22 0.20 0.17
0.00 0.00 0.00 0.00 0.00 0.00 0.01 0.01 0.01 0.01 0.01 0.02 0.06 0.11 0.14 0.17 0.16 0.16 0.19 0.29 0.40 0.40 0.37 0.38 0.40 0.43 0.47 0.47 0.47 0.42 0.31 0.23 0.19 0.12 0.05 0.04 0.09 0.19 0.25 0.24 0.23 0.21 0.17
0.00 0.00 0.00 0.00 0.00 0.00 0.00 0.00 0.00 0.01 0.01 0.02 0.08 0.18 0.24 0.27 0.26 0.25 0.29 0.35 0.49 0.60 0.62 0.61 0.56 0.51 0.51 0.52 0.54 0.50 0.40 0.30 0.23 0.17 0.09 0.05 0.08 0.17 0.28 0.32 0.29 0.24 0.20
0.00 0.00 0.00 0.00 0.00 0.00 0.00 0.00 0.00 0.01 0.02 0.04 0.08 0.18 0.28 0.38 0.44 0.48 0.54 0.51 0.50 0.60 0.68 0.73 0.74 0.74 0.68 0.61 0.57 0.52 0.47 0.38 0.29 0.22 0.16 0.10 0.09 0.17 0.30 0.37 0.34 0.28 0.25
0.00 0.00 0.00 0.00 0.00 0.00 0.00 0.00 0.00 0.01 0.02 0.04 0.06 0.10 0.19 0.45 0.71 0.72 0.71 0.58 0.44 0.41 0.46 0.52 0.63 0.76 0.77 0.75 0.72 0.60 0.51 0.47 0.40 0.31 0.24 0.19 0.16 0.20 0.31 0.39 0.43 0.40 0.33
0.00 0.00 0.00 0.00 0.00 0.00 0.00 0.00 0.00 0.00 0.02 0.03 0.03 0.05 0.12 0.39 0.72 0.71 0.53 0.32 0.22 0.24 0.29 0.31 0.35 0.50 0.57 0.62 0.70 0.65 0.61 0.60 0.58 0.49 0.38 0.29 0.23 0.25 0.32 0.43 0.49 0.51 0.44
0.00 0.00 0.00 0.00 0.00 0.00 0.00 0.00 0.00 0.00 0.01 0.03 0.02 0.01 0.04 0.24 0.57 0.58 0.34 0.12 0.10 0.12 0.16 0.17 0.19 0.29 0.35 0.34 0.42 0.45 0.51 0.60 0.69 0.69 0.64 0.52 0.36 0.28 0.32 0.41 0.47 0.51 0.50
0.00 0.00 0.00 0.00 0.00 0.00 0.00 0.00 0.00 0.00 0.01 0.02 0.02 0.00 0.01 0.10 0.45 0.53 0.27 0.07 0.06 0.09 0.12 0.11 0.08 0.14 0.24 0.23 0.24 0.31 0.39 0.51 0.70 0.79 0.83 0.77 0.59 0.42 0.36 0.46 0.54 0.52 0.55
0.00 0.00 0.00 0.00 0.00 0.00 0.00 0.00 0.00 0.00 0.00 0.00 0.01 0.00 0.00 0.03 0.30 0.54 0.31 0.06 0.05 0.07 0.11 0.13 0.07 0.05 0.13 0.10 0.10 0.17 0.22 0.34 0.47 0.62 0.67 0.65 0.61 0.58 0.53 0.53 0.62 0.61 0.69
0.00 0.00 0.00 0.00 0.00 0.00 0.00 0.00 0.00 0.00 0.00 0.00 0.00 0.00 0.00 0.01 0.14 0.48 0.44 0.09 0.04 0.06 0.07 0.09 0.12 0.09 0.08 0.05 0.03 0.06 0.12 0.18 0.24 0.30 0.36 0.40 0.45 0.49 0.56 0.65 0.76 0.76 0.81
0.00 0.00 0.00 0.00 0.00 0.00 0.00 0.00 0.00 0.00 0.00 0.00 0.00 0.00 0.00 0.00 0.04 0.27 0.50 0.28 0.08 0.06 0.07 0.09 0.10 0.08 0.04 0.03 0.02 0.03 0.07 0.06 0.09 0.15 0.22 0.29 0.37 0.45 0.56 0.69 0.79 0.82 0.83
0.00 0.00 0.00 0.00 0.00 0.00 0.00 0.00 0.00 0.00 0.00 0.00 0.00 0.00 0.00 0.00 0.03 0.13 0.26 0.32 0.18 0.06 0.07 0.08 0.08 0.04 0.02 0.01 0.01 0.01 0.01 0.01 0.02 0.05 0.10 0.17 0.28 0.41 0.54 0.67 0.79 0.85 0.85
0.00 0.00 0.00 0.00 0.00 0.00 0.00 0.00 0.00 0.01 0.03 0.03 0.02 0.01 0.01 0.01 0.05 0.11 0.10 0.12 0.13 0.11 0.16 0.12 0.04 0.01 0.00 0.00 0.00 0.00 0.00 0.00 0.01 0.02 0.06 0.12 0.22 0.35 0.41 0.50 0.62 0.73 0.75
0.00 0.00 0.00 0.00 0.00 0.00 0.00 0.01 0.01 0.03 0.10 0.10 0.06 0.02 0.02 0.05 0.13 0.21 0.11 0.04 0.05 0.07 0.11 0.09 0.02 0.00 0.00 0.00 0.00 0.00 0.00 0.00 0.00 0.01 0.04 0.07 0.13 0.20 0.29 0.39 0.49 0.60 0.66
0.00 0.00 0.00 0.00 0.00 0.00 0.00 0.00 0.02 0.05 0.15 0.19 0.11 0.08 0.09 0.19 0.27 0.26 0.15 0.10 0.12 0.13 0.06 0.02 0.00 0.00 0.00 0.00 0.00 0.00 0.00 0.00 0.00 0.00 0.01 0.04 0.08 0.14 0.22 0.32 0.43 0.52 0.59
0.00 0.00 0.00 0.00 0.01 0.00 0.00 0.00 0.01 0.03 0.07 0.08 0.07 0.09 0.10 0.24 0.24 0.13 0.08 0.08 0.12 0.13 0.04 0.01 0.00 0.00 0.00 0.00 0.00 0.00 0.00 0.00 0.00 0.00 0.01 0.02 0.06 0.11 0.18 0.25 0.35 0.46 0.54
0.00 0.01 0.01 0.01 0.01 0.01 0.01 0.02 0.02 0.01 0.02 0.02 0.03 0.04 0.09 0.16 0.14 0.08 0.05 0.02 0.03 0.02 0.00 0.00 0.00 0.00 0.00 0.00 0.00 0.00 0.00 0.00 0.00 0.00 0.00 0.01 0.04 0.08 0.13 0.18 0.26 0.36 0.47
0.00 0.01 0.01 0.01 0.02 0.02 0.03 0.03 0.03 0.03 0.02 0.01 0.00 0.01 0.04 0.07 0.07 0.05 0.03 0.00 0.00 0.00 0.00 0.00 0.00 0.00 0.00 0.00 0.00 0.00 0.00 0.00 0.00 0.00 0.00 0.01 0.02 0.04 0.09 0.13 0.19 0.28 0.37
0.00 0.01 0.02 0.03 0.03 0.03 0.04 0.04 0.03 0.03 0.03 0.01 0.00 0.00 0.01 0.02 0.01 0.01 0.01 0.01 0.01 0.01 0.00 0.00 0.00 0.00 0.00 0.00 0.00 0.00 0.00 0.00 0.00 0.00 0.00 0.00 0.01 0.02 0.05 0.09 0.14 0.19 0.27
0.00 0.01 0.02 0.03 0.03 0.03 0.04 0.04 0.03 0.03 0.03 0.02 0.02 0.03 0.06 0.04 0.01 0.01 0.01 0.01 0.02 0.01 0.01 0.01 0.00 0.00 0.00 0.00 0.00 0.00 0.00 0.00 0.00 0.00 0.00 0.00 0.00 0.01 0.03 0.06 0.09 0.13 0.19
0.02 0.01 0.01 0.02 0.02 0.03 0.04 0.04 0.04 0.04 0.04 0.03 0.02 0.04 0.12 0.09 0.03 0.02 0.02 0.03 0.04 0.04 0.03 0.02 0.01 0.01 0.00 0.00 0.00 0.00 0.00 0.00 0.00 0.00 0.00 0.00 0.00 0.00 0.01 0.03 0.06 0.09 0.13
0.03 0.02 0.02 0.02 0.03 0.03 0.04 0.04 0.04 0.05 0.04 0.04 0.02 0.02 0.04 0.03 0.02 0.02 0.03 0.04 0.05 0.05 0.05 0.04 0.02 0.01 0.01 0.00 0.00 0.00 0.00 0.00 0.00 0.00 0.00 0.00 0.00 0.00 0.01 0.01 0.03 0.05 0.08
0.02 0.02 0.01 0.01 0.01 0.02 0.02 0.02 0.03 0.04 0.04 0.03 0.03 0.03 0.03 0.03 0.03 0.04 0.05 0.05 0.05 0.05 0.05 0.05 0.04 0.03 0.02 0.01 0.00 0.00 0.00 0.00 0.00 0.00 0.00 0.00 0.00 0.00 0.00 0.01 0.02 0.03 0.05
0.01 0.01 0.01 0.01 0.01 0.01 0.02 0.02 0.03 0.04 0.04 0.04 0.04 0.04 0.04 0.04 0.04 0.04 0.04 0.05 0.05 0.06 0.07 0.07 0.06 0.05 0.03 0.02 0.01 0.00 0.00 0.00 0.00 0.00 0.01 0.01 0.01 0.01 0.01 0.01 0.01 0.02 0.03
0.00 0.01 0.01 0.02 0.02 0.02 0.02 0.02 0.02 0.03 0.04 0.04 0.04 0.04 0.04 0.04 0.04 0.04 0.04 0.05 0.06 0.06 0.07 0.09 0.09 0.08 0.06 0.04 0.02 0.01 0.00 0.00 0.02 0.06 0.08 0.07 0.05 0.03 0.03 0.03 0.02 0.02 0.02
0.00 0.00 0.01 0.02 0.02 0.02 0.02 0.03 0.03 0.04 0.05 0.04 0.04 0.05 0.06 0.06 0.06 0.05 0.06 0.08 0.09 0.09 0.08 0.10 0.11 0.12 0.09 0.06 0.03 0.01 0.02 0.04 0.07 0.09 0.10 0.09 0.07 0.05 0.03 0.03 0.02 0.02 0.02